Home > Weather > Atlanta > Past weeks

Flag for USA Weather for the Past 2 Weeks in Atlanta, Georgia, USA

Now
73 °F

Cloudy.


Feels Like: 76 °F
Forecast: 62 / 75 °F
Wind: 12 mph from West

Location: Fulton County Airport-Brown Field

Current Time: May 3, 2016 at 3:04:42 PM

Latest Report: May 3, 2016 at 1:53 PM


Visibility: 10 mi

Pressure: 29.86 "Hg

Humidity: 64%

Dew Point: 60 °F

Location of AtlantaLocation

Historic Weather in Atlanta — Graph

°F

Atlanta Temperature Yesterday

Maximum temperature yesterday: 82 °F (at 1:53 PM)
Minimum temperature yesterday: 65 °F (at 3:53 AM)
Average temperature yesterday: 73 °F

High & Low Weather Summary for the Past Weeks

 TemperatureHumidityPressure
High86 °F (Apr 29, 2:53 PM)97% (May 1, 6:56 AM)30.29 "Hg (May 1, 6:56 AM)
Low46 °F (Apr 19, 6:53 AM)20% (Apr 18, 4:53 PM)29.80 "Hg (Apr 27, 4:53 PM)
Average69 °F68%29.98 "Hg
* Reported Apr 18 1:53 PM — May 3 1:53 PM, Atlanta, Weather by CustomWeather, © 2016

Note: Actual official high and low records may vary slightly from our data, if they occured in-between our weather recording intervals... More about our weather records

Advertising

Atlanta Weather History for the Previous 24 Hours

Scroll right to see more
 ConditionsComfort  
Time TempWeatherWind HumidityBarometerVisibility
1:53 PM
Tue, May 3
73 °FCloudy.12 mph64%29.86 "Hg10 mi
12:53 PM72 °FPartly sunny.15 mph68%29.88 "Hg10 mi
11:53 AM71 °FCloudy.8 mph71%29.90 "Hg10 mi
10:53 AM70 °FOvercast.7 mph73%29.90 "Hg10 mi
9:53 AM69 °FMostly cloudy.12 mph79%29.90 "Hg10 mi
8:53 AM67 °FMostly cloudy.5 mph85%29.88 "Hg10 mi
7:53 AM65 °FMostly cloudy.3 mph91%29.88 "Hg10 mi
6:53 AM65 °FMostly cloudy.3 mph91%29.87 "Hg10 mi
5:53 AM64 °FMostly cloudy.5 mph94%29.86 "Hg10 mi
4:53 AM64 °FPassing clouds.3 mph90%29.86 "Hg10 mi
3:53 AM64 °FClear.3 mph94%29.86 "Hg9 mi
2:53 AM65 °FPassing clouds.3 mph91%29.86 "Hg10 mi
1:53 AM66 °FOvercast.5 mph90%29.88 "Hg10 mi
12:53 AM66 °FPassing clouds.No wind90%29.89 "Hg10 mi
11:53 PM
Mon, May 2
66 °FLight rain. Mostly cloudy.No wind90%29.90 "Hg10 mi
10:53 PM67 °FLight rain. Overcast.No wind87%29.92 "Hg10 mi
9:53 PM72 °FMostly cloudy.15 mph68%29.92 "Hg10 mi
8:53 PM76 °FCloudy.7 mph64%29.91 "Hg10 mi
7:53 PM77 °FSunny.5 mph60%29.89 "Hg10 mi
6:53 PM79 °FSunny.8 mph54%29.87 "Hg10 mi
5:53 PM80 °FSunny.10 mph52%29.88 "Hg10 mi
4:53 PM82 °FSunny.7 mph51%29.89 "Hg10 mi
3:53 PM81 °FScattered clouds.8 mph51%29.92 "Hg10 mi
Weather by CustomWeather, © 2016

See weather overviewHow to use our weather pages